Weather in Gorodok

Belarus     55˚27′44″N   29˚58′58″E
temp.,
°C
wind,
m/s
gust,
m/s
humid.,
%
clouds,
%
prec.,
mm/h
press.,
hPa
HPBL,
m
1 december, tue
tue100:00−3˚ssw399488 0.1 1025360
03:00−2˚ssw488494 0.1 1026552
06:00−2˚ssw389399 0.0 1026458
09:00−3˚ssw379796 0.2 1028310
12:00−2˚ssw359596 0.1 1029411
15:00−2˚ssw239198 0.1 1030370
18:00−3˚s2392100 0.1 1030293
21:00−3˚s1292100 0.1 1032275
2 december, wed
wed200:00−3˚sse1290100 0.1 1033263
03:00−3˚se1288100 0.1 1034333
06:00−4˚ese239393 0.0 1033183
09:00−6˚ene239578 0.0 103371
12:00−3˚e369021 0.0 1032304
15:00−2˚e369060 0.1 1031433
18:00−3˚e389380 0.0 1030317
21:00−4˚ese389481 0.1 1029352
3 december, thu
thu300:00−4˚se379497 0.1 1028442
03:00−4˚se379497 0.4 1028456
06:00−4˚sse389598 0.1 1027389
09:00−4˚sse489399 0.3 1027487
12:00−2˚sse4789100 0.1 1026522
15:00−2˚sse4788100 0.1 1026563
18:00−2˚se4893100 0.1 1025499
21:00−3˚sse4892100 0.2 1025545
4 december, fri
fri400:00−2˚sse41092100 0.1 1025610
03:00−2˚se5109298 0.2 1024504
06:00−1˚se51191100 0.1 1023505
09:00−1˚se51192100 0.1 1023629
12:00se51191100 0.0 1023599
15:00+1˚se61289100 0.1 1023640
18:00+1˚se61391100 0.0 1023554
21:00se61491100 0.0 1024575
5 december, sat
sat500:00−1˚se7119399 0.0 1025662
03:00se6128799 0.0 1024741
06:00se61289100 0.0 1024639
09:00+1˚sse51289100 0.0 1025699
12:00+1˚sse51391100 0.0 1025611
15:00+2˚se51392100 0.0 1025596
18:00+2˚se61293100 0.1 1025561
21:00+1˚sse61393100 0.1 1026606